Location: Beuvrequen
(50.8014°N, 1.6652°E)
Time: 22:14:53
(UTC+00:00)

Cosmos 1953 - Pass Details

Date: 16 October 2021
Orbit: 537 x 557 km, 82.5° (Epoch: 04 December)

Event Time Altitude Azimuth Distance (km) Brightness Sun altitude
Rises 18:11:25 0° 177° (S) 2,723 5.8 -12.2°
Reaches altitude 10° 18:13:36 10° 172° (S) 1,836 4.9 -12.6°
Maximum altitude 18:17:33 54° 95° (E) 683 2.4 -13.2°
Drops below altitude 10° 18:21:32 10° 18° (NNE) 1,857 4.8 -13.8°
Sets 18:23:45 0° 14° (NNE) 2,758 5.8 -14.2°
